Weather History for Dyersburg, TN

Change the Weather History Date:

Monday, February 18, 2013

  Actual Average Record
Temperature  
Mean Temperature 50 °F -  
Max Temperature 57 °F 50 °F 73 °F (2000)
Min Temperature 42 °F 35 °F 15 °F (2006)
Degree Days  
Heating Degree Days 16    
Moisture  
Dew Point 35 °F    
Average Humidity 58    
Maximum Humidity 76    
Minimum Humidity 44    
Precipitation  
Precipitation 0.78 in - - ()
Sea Level Pressure  
Sea Level Pressure 29.94 in    
Wind  
Wind Speed 12 mph (South)    
Max Wind Speed 23 mph    
Max Gust Speed 37 mph    
Visibility 10 miles    
Events Thunderstorm    
Averages and records for this station are not official NWS values.
T = Trace of Precipitation, MM = Missing Value Source: NWS Daily Summary

Daily Weather History Graph

Daily Weather History Graph

Search for Another Location

Airport:

Trip Planner

Search our weather history database for the weather conditions in past years. The results will help you decide how hot, cold, wet, or windy it might be!

Date:

Astronomy

Feb. 18, 2013 Rise Set
Actual Time 6:41 AM CST 5:42 PM CST
Civil Twilight 6:15 AM CST 6:08 PM CST
Nautical Twilight 5:45 AM CST 6:38 PM CST
Astronomical Twilight 5:15 AM CST 7:08 PM CST
Moon 11:33 AM CST (2/18) 1:15 AM CST (2/18)
Length of Visible Light 11h 53m
Length of Day
11h 01m
First Quarter, 58% of the Moon is Illuminated
Feb 18
First Quarter
Feb 25
Full
Mar 4
Last Quarter
Mar 11
New
Mar 19
First Quarter

Hourly Weather History & Observations

Time (CST) Temp. Windchill Dew Point Humidity Pressure Visibility Wind Dir Wind Speed Gust Speed Precip Events Conditions
12:55 AM 42.8 °F 38.0 °F 23.0 °F 46% 30.07 in 10.0 mi SSE 8.1 mph - N/A   Clear
1:15 AM 42.8 °F 38.0 °F 23.0 °F 46% 30.07 in 10.0 mi SSE 8.1 mph - N/A   Clear
1:55 AM 42.8 °F 37.5 °F 24.8 °F 49% 30.06 in 10.0 mi SSE 9.2 mph - N/A   Clear
2:15 AM 42.8 °F 37.5 °F 24.8 °F 49% 30.06 in 10.0 mi South 9.2 mph - N/A   Clear
2:35 AM 44.6 °F 40.7 °F 24.8 °F 46% 30.06 in 10.0 mi South 6.9 mph 16.1 mph N/A   Clear
2:55 AM 44.6 °F 38.4 °F 26.6 °F 49% 30.06 in 10.0 mi South 12.7 mph 17.3 mph N/A   Clear
3:15 AM 44.6 °F 39.2 °F 26.6 °F 49% 30.06 in 10.0 mi South 10.4 mph 17.3 mph N/A   Clear
3:55 AM 46.4 °F 41.9 °F 28.4 °F 50% 30.06 in 10.0 mi South 9.2 mph 16.1 mph N/A   Clear
4:15 AM 44.6 °F 39.7 °F 28.4 °F 53% 30.07 in 10.0 mi South 9.2 mph - N/A   Clear
4:35 AM 44.6 °F 39.7 °F 28.4 °F 53% 30.07 in 10.0 mi South 9.2 mph 16.1 mph N/A   Clear
4:55 AM 44.6 °F 40.7 °F 28.4 °F 53% 30.07 in 10.0 mi South 6.9 mph - N/A   Clear
5:15 AM 44.6 °F 39.7 °F 28.4 °F 53% 30.07 in 10.0 mi South 9.2 mph - N/A   Clear
5:35 AM 44.6 °F 40.2 °F 28.4 °F 53% 30.07 in 10.0 mi SSE 8.1 mph - N/A   Clear
6:15 AM 44.6 °F 39.2 °F 28.4 °F 53% 30.07 in 10.0 mi SSE 10.4 mph - N/A   Clear
6:35 AM 42.8 °F 37.5 °F 28.4 °F 57% 30.07 in 10.0 mi SSE 9.2 mph - N/A   Clear
6:55 AM 42.8 °F 36.6 °F 28.4 °F 57% 30.06 in 10.0 mi SSE 11.5 mph 17.3 mph N/A   Clear
7:15 AM 42.8 °F 37.5 °F 28.4 °F 57% 30.07 in 10.0 mi SSE 9.2 mph - N/A   Clear
7:35 AM 44.6 °F 38.8 °F 28.4 °F 53% 30.07 in 10.0 mi South 11.5 mph 20.7 mph N/A   Clear
7:55 AM 46.4 °F 40.4 °F 30.2 °F 53% 30.07 in 10.0 mi South 13.8 mph 20.7 mph N/A   Clear
8:15 AM 46.4 °F 40.1 °F 30.2 °F 53% 30.07 in 10.0 mi South 15.0 mph 21.9 mph N/A   Clear
8:35 AM 46.4 °F 40.4 °F 32.0 °F 57% 30.07 in 10.0 mi South 13.8 mph 23.0 mph N/A   Partly Cloudy
8:55 AM 48.2 °F - 33.8 °F 58% 30.06 in 10.0 mi South 17.3 mph 26.5 mph N/A   Mostly Cloudy
9:15 AM 50.0 °F - 33.8 °F 54% 30.06 in 10.0 mi South 18.4 mph 29.9 mph N/A   Overcast
9:35 AM 51.8 °F - 33.8 °F 50% 30.04 in 10.0 mi South 17.3 mph 25.3 mph N/A   Mostly Cloudy
9:55 AM 51.8 °F - 33.8 °F 50% 30.03 in 10.0 mi South 16.1 mph 27.6 mph N/A   Overcast
10:15 AM 51.8 °F - 33.8 °F 50% 30.03 in 10.0 mi South 16.1 mph 21.9 mph N/A   Overcast
10:35 AM 51.8 °F - 33.8 °F 50% 30.03 in 10.0 mi South 13.8 mph 25.3 mph N/A   Overcast
10:55 AM 53.6 °F - 33.8 °F 47% 30.02 in 10.0 mi South 11.5 mph 26.5 mph N/A   Overcast
11:15 AM 53.6 °F - 35.6 °F 51% 30.01 in 10.0 mi South 15.0 mph 29.9 mph N/A   Overcast
11:35 AM 57.2 °F - 35.6 °F 44% 30.00 in 10.0 mi South 12.7 mph 24.2 mph N/A   Overcast
12:15 PM 55.4 °F - 37.4 °F 51% 29.96 in 10.0 mi South 15.0 mph 24.2 mph N/A   Overcast
12:35 PM 57.2 °F - 39.2 °F 51% 29.94 in 10.0 mi South 16.1 mph 33.4 mph N/A   Overcast
12:55 PM 57.2 °F - 39.2 °F 51% 29.93 in 10.0 mi South 16.1 mph 36.8 mph N/A   Overcast
1:15 PM 57.2 °F - 37.4 °F 48% 29.91 in 10.0 mi South 19.6 mph 31.1 mph N/A   Overcast
1:55 PM 57.2 °F - 37.4 °F 48% 29.88 in 10.0 mi SSE 18.4 mph 24.2 mph N/A   Overcast
2:15 PM 57.2 °F - 39.2 °F 51% 29.86 in 10.0 mi South 16.1 mph 25.3 mph N/A   Overcast
2:35 PM 55.4 °F - 39.2 °F 54% 29.84 in 10.0 mi South 17.3 mph 34.5 mph N/A   Overcast
2:55 PM 55.4 °F - 39.2 °F 54% 29.84 in 10.0 mi SSE 15.0 mph 29.9 mph N/A Thunderstorm Overcast
3:15 PM 53.6 °F - 41.0 °F 62% 29.84 in 10.0 mi South 16.1 mph 27.6 mph 0.02 in   Overcast
3:35 PM 51.8 °F - 41.0 °F 67% 29.82 in 9.0 mi South 17.3 mph 27.6 mph 0.06 in   Overcast
3:55 PM 51.8 °F - 41.0 °F 67% 29.81 in 10.0 mi South 15.0 mph 21.9 mph 0.06 in   Overcast
4:15 PM 53.6 °F - 41.0 °F 62% 29.81 in 10.0 mi South 15.0 mph 25.3 mph N/A Thunderstorm Overcast
4:35 PM 53.6 °F - 42.8 °F 67% 29.79 in 10.0 mi SSE 20.7 mph 27.6 mph N/A   Overcast
4:55 PM 53.6 °F - 41.0 °F 62% 29.78 in 10.0 mi SSE 16.1 mph 27.6 mph N/A   Overcast
5:15 PM 53.6 °F - 41.0 °F 62% 29.76 in 10.0 mi SSE 15.0 mph 24.2 mph N/A   Overcast
5:35 PM 53.6 °F - 41.0 °F 62% 29.77 in 10.0 mi South 15.0 mph 23.0 mph 0.02 in   Overcast
5:55 PM 51.8 °F - 42.8 °F 71% 29.80 in 10.0 mi South 11.5 mph 25.3 mph 0.05 in   Overcast
6:15 PM 51.8 °F - 41.0 °F 67% 29.79 in 10.0 mi South 12.7 mph 24.2 mph 0.04 in   Overcast
6:35 PM 51.8 °F - 41.0 °F 67% 29.78 in 10.0 mi SSE 9.2 mph 16.1 mph 0.09 in   Overcast
6:55 PM 51.8 °F - 41.0 °F 67% 29.78 in 10.0 mi South 13.8 mph 21.9 mph 0.10 in   Mostly Cloudy
7:15 PM 51.8 °F - 42.8 °F 71% 29.76 in 10.0 mi South 12.7 mph 19.6 mph 0.02 in   Overcast
7:35 PM 51.8 °F - 42.8 °F 71% 29.77 in 10.0 mi South 10.4 mph 18.4 mph 0.05 in   Overcast
7:55 PM 50.0 °F - 42.8 °F 76% 29.85 in 6.0 mi West 23.0 mph 32.2 mph 0.34 in   Overcast
8:15 PM 48.2 °F - 39.2 °F 71% 29.83 in 10.0 mi SSW 9.2 mph - 0.12 in   Overcast
8:35 PM 48.2 °F - 39.2 °F 71% 29.81 in 10.0 mi South 10.4 mph - 0.18 in   Overcast
8:55 PM 50.0 °F - 41.0 °F 71% 29.80 in 10.0 mi SSW 9.2 mph 16.1 mph 0.23 in   Overcast
9:15 PM 50.0 °F - 41.0 °F 71% 29.81 in 10.0 mi SSW 9.2 mph - N/A   Overcast
9:35 PM 51.8 °F - 41.0 °F 67% 29.84 in 10.0 mi SW 11.5 mph - N/A   Overcast
9:55 PM 51.8 °F - 41.0 °F 67% 29.85 in 10.0 mi SW 16.1 mph 24.2 mph N/A   Overcast
10:15 PM 51.8 °F - 41.0 °F 67% 29.86 in 10.0 mi WSW 18.4 mph 24.2 mph N/A   Overcast
10:35 PM 51.8 °F - 41.0 °F 67% 29.88 in 10.0 mi West 18.4 mph 28.8 mph N/A   Overcast
10:55 PM 48.2 °F - 37.4 °F 66% 29.90 in 10.0 mi West 13.8 mph 25.3 mph N/A   Overcast
11:15 PM 48.2 °F - 35.6 °F 62% 29.92 in 10.0 mi WNW 13.8 mph 26.5 mph N/A   Overcast
11:35 PM 46.4 °F 40.4 °F 35.6 °F 66% 29.93 in 10.0 mi WNW 13.8 mph 19.6 mph N/A   Overcast
11:55 PM 46.4 °F 41.5 °F 33.8 °F 62% 29.95 in 10.0 mi WNW 10.4 mph 18.4 mph N/A   Overcast